GIA1124 WIMM-OEJN

Flight info

Callsign GIA1124
Flight time 7h 38m
Altitude 32000
Route INANG DCT MABIX P570 TVM UL425 ODOLI/N0497F340 UL425 ASPUX L425 GOBRO DCT AMBIT L425 BOSUT
Aircraft B77W/H-SDE1E2E3FGHIJ2J3J4J5M1RWXY/LB1D1

Departure

Time 2026-05-08 09:53
Airport Kualanamu International Airport (WIMM)

Arrival

Time 2026-05-08 17:31
Airport King Abdulaziz International Airport (OEJN)
Time Latitude Longitude Altitude Speed Heading
2026-05-08 09:24 3.63723 98.88009 45 ft 0 kts 225°
2026-05-08 09:37 3.63724 98.88010 45 ft 2 kts 225°
2026-05-08 09:37 3.63743 98.88028 45 ft 4 kts 225°
2026-05-08 09:38 3.63759 98.88045 45 ft 4 kts 226°
2026-05-08 09:38 3.63772 98.88066 45 ft 4 kts 270°
2026-05-08 09:38 3.63763 98.88086 45 ft 4 kts 321°
2026-05-08 09:38 3.63743 98.88102 45 ft 2 kts 315°
2026-05-08 09:39 3.63743 98.88103 45 ft 0 kts 315°
2026-05-08 09:43 3.63757 98.88088 45 ft 8 kts 315°
2026-05-08 09:43 3.63810 98.88035 45 ft 11 kts 315°
2026-05-08 09:43 3.63864 98.87981 45 ft 11 kts 315°
2026-05-08 09:44 3.63933 98.87974 45 ft 11 kts 30°
2026-05-08 09:44 3.63989 98.88026 45 ft 11 kts 44°
2026-05-08 09:44 3.64043 98.88080 45 ft 11 kts 45°
2026-05-08 09:44 3.64097 98.88134 45 ft 11 kts 39°
2026-05-08 09:45 3.64161 98.88116 45 ft 11 kts 318°
2026-05-08 09:45 3.64197 98.88082 45 ft 11 kts 316°
2026-05-08 09:45 3.64251 98.88029 45 ft 12 kts 315°
2026-05-08 09:45 3.64285 98.87939 44 ft 12 kts 240°
2026-05-08 09:46 3.64249 98.87898 44 ft 12 kts 224°
2026-05-08 09:46 3.64190 98.87841 42 ft 14 kts 224°
2026-05-08 09:46 3.64097 98.87749 44 ft 20 kts 225°
2026-05-08 09:46 3.63997 98.87648 43 ft 20 kts 225°
2026-05-08 09:47 3.63896 98.87548 44 ft 20 kts 225°
2026-05-08 09:47 3.63796 98.87449 44 ft 20 kts 225°
2026-05-08 09:47 3.63695 98.87349 45 ft 20 kts 225°
2026-05-08 09:47 3.63619 98.87264 44 ft 12 kts 246°
2026-05-08 09:48 3.63633 98.87186 44 ft 12 kts 271°
2026-05-08 09:48 3.63589 98.87118 44 ft 13 kts 227°
2026-05-08 09:48 3.63503 98.87031 44 ft 19 kts 225°
2026-05-08 09:48 3.63407 98.86935 44 ft 19 kts 225°
2026-05-08 09:49 3.63313 98.86842 44 ft 19 kts 225°
2026-05-08 09:49 3.63213 98.86743 42 ft 23 kts 225°
2026-05-08 09:49 3.63092 98.86622 44 ft 25 kts 225°
2026-05-08 09:49 3.62970 98.86501 44 ft 25 kts 224°
2026-05-08 09:50 3.62848 98.86380 44 ft 25 kts 225°
2026-05-08 09:50 3.62727 98.86259 43 ft 25 kts 225°
2026-05-08 09:50 3.62607 98.86140 44 ft 24 kts 225°
2026-05-08 09:50 3.62510 98.86018 44 ft 21 kts 255°
2026-05-08 09:51 3.62546 98.85920 41 ft 10 kts 316°
2026-05-08 09:51 3.62598 98.85892 41 ft 8 kts
2026-05-08 09:51 3.62649 98.85928 42 ft 13 kts 44°
2026-05-08 09:51 3.62770 98.86047 42 ft 40 kts 45°
2026-05-08 09:52 3.63141 98.86417 41 ft 110 kts 45°
2026-05-08 09:52 3.63839 98.87112 41 ft 171 kts 45°
2026-05-08 09:52 3.64786 98.88060 169 ft 203 kts 45°
2026-05-08 09:52 3.65806 98.89068 620 ft 209 kts 44°
2026-05-08 09:53 3.66998 98.89869 1000 ft 214 kts
2026-05-08 09:53 3.68406 98.89516 1416 ft 214 kts 327°
2026-05-08 09:53 3.69653 98.88632 1773 ft 224 kts 315°
2026-05-08 09:53 3.70661 98.87378 1925 ft 241 kts 304°
2026-05-08 09:54 3.71627 98.85947 2208 ft 256 kts 305°
2026-05-08 09:54 3.72660 98.84484 2584 ft 266 kts 305°
2026-05-08 09:54 3.73742 98.82953 3120 ft 272 kts 305°
2026-05-08 09:54 3.74837 98.81391 3753 ft 275 kts 304°
2026-05-08 09:55 3.75938 98.79819 4397 ft 277 kts 304°
2026-05-08 09:55 3.77039 98.78247 4933 ft 277 kts 304°
2026-05-08 09:55 3.78155 98.76645 5237 ft 283 kts 304°
2026-05-08 09:55 3.79286 98.75024 5921 ft 283 kts 304°
2026-05-08 09:56 3.80417 98.73415 6645 ft 282 kts 304°
2026-05-08 09:56 3.81573 98.71793 7215 ft 286 kts 306°
2026-05-08 09:56 3.82593 98.70093 7636 ft 288 kts 291°
2026-05-08 09:56 3.83282 98.68198 8242 ft 290 kts 288°
2026-05-08 09:57 3.84593 98.64320 9221 ft 297 kts 289°
2026-05-08 09:57 3.85313 98.62399 9897 ft 296 kts 291°
2026-05-08 09:57 3.86074 98.60455 10262 ft 306 kts 291°
2026-05-08 09:58 3.86875 98.58416 10395 ft 324 kts 291°
2026-05-08 09:58 3.87721 98.56259 10552 ft 342 kts 291°
2026-05-08 09:58 3.88608 98.53984 10703 ft 360 kts 291°
2026-05-08 09:58 3.89570 98.51606 10815 ft 376 kts 292°
2026-05-08 09:59 3.90539 98.49131 11163 ft 387 kts 291°
2026-05-08 09:59 3.91495 98.46583 11554 ft 396 kts 290°
2026-05-08 09:59 3.92435 98.43947 12004 ft 400 kts 290°
2026-05-08 09:59 3.93509 98.41425 12400 ft 400 kts 294°
2026-05-08 10:00 3.94578 98.38792 12969 ft 405 kts 291°
2026-05-08 10:00 3.95550 98.36175 13604 ft 408 kts 290°
2026-05-08 10:00 3.96546 98.33502 14186 ft 411 kts 291°
2026-05-08 10:00 3.97574 98.30815 14726 ft 416 kts 291°
2026-05-08 10:01 3.98638 98.28066 15245 ft 420 kts 292°
2026-05-08 10:01 3.99711 98.25326 15761 ft 426 kts 292°
2026-05-08 10:01 4.00793 98.22558 16311 ft 427 kts 292°
2026-05-08 10:01 4.01870 98.19768 16802 ft 431 kts 292°
2026-05-08 10:02 4.02978 98.16963 17272 ft 436 kts 291°
2026-05-08 10:02 4.04054 98.14108 17705 ft 439 kts 292°
2026-05-08 10:02 4.05163 98.11250 18144 ft 443 kts 292°
2026-05-08 10:02 4.06277 98.08358 18587 ft 446 kts 292°
2026-05-08 10:03 4.07400 98.05446 19049 ft 449 kts 292°
2026-05-08 10:03 4.08500 98.02558 19495 ft 449 kts 289°
2026-05-08 10:03 4.09062 97.99472 19678 ft 457 kts 269°
2026-05-08 10:03 4.08531 97.96337 20027 ft 460 kts 250°
2026-05-08 10:04 4.07188 97.93438 20487 ft 459 kts 235°
2026-05-08 10:04 4.05231 97.90931 20871 ft 458 kts 228°
2026-05-08 10:04 4.03128 97.88509 21191 ft 463 kts 227°
2026-05-08 10:04 4.01865 97.87067 21404 ft 465 kts 227°
2026-05-08 10:05 4.00238 97.85192 21528 ft 452 kts 227°
2026-05-08 10:05 3.98237 97.82832 21485 ft 435 kts 230°
2026-05-08 10:05 3.96409 97.80501 21567 ft 421 kts 227°
2026-05-08 10:05 3.94464 97.78311 21803 ft 426 kts 228°
2026-05-08 10:06 3.92562 97.75972 21881 ft 439 kts 229°
2026-05-08 10:06 3.90625 97.73614 21960 ft 450 kts 231°
2026-05-08 10:06 3.88981 97.70927 22002 ft 460 kts 246°
2026-05-08 10:06 3.88029 97.67791 22110 ft 470 kts 260°
2026-05-08 10:07 3.87761 97.64506 22300 ft 477 kts 272°
2026-05-08 10:07 3.88201 97.61228 22550 ft 476 kts 282°
2026-05-08 10:07 3.88935 97.57979 22823 ft 480 kts 284°
2026-05-08 10:07 3.89727 97.54722 23156 ft 483 kts 284°
2026-05-08 10:08 3.90532 97.51452 23508 ft 485 kts 284°
2026-05-08 10:08 3.91275 97.48387 23824 ft 487 kts 284°
2026-05-08 10:08 3.92018 97.45261 24108 ft 489 kts 283°
2026-05-08 10:08 3.92792 97.41932 24408 ft 492 kts 283°
2026-05-08 10:09 3.93440 97.39090 24690 ft 493 kts 283°
2026-05-08 10:09 3.94196 97.35735 25038 ft 494 kts 283°
2026-05-08 10:09 3.94950 97.32369 25360 ft 496 kts 283°
2026-05-08 10:09 3.95703 97.29000 25681 ft 497 kts 283°
2026-05-08 10:10 3.96460 97.25611 25978 ft 499 kts 283°
2026-05-08 10:10 3.97218 97.22218 26262 ft 500 kts 283°
2026-05-08 10:10 3.97986 97.18817 26515 ft 502 kts 283°
2026-05-08 10:10 3.98750 97.15398 26721 ft 504 kts 283°
2026-05-08 10:11 3.99507 97.11961 26967 ft 506 kts 283°
2026-05-08 10:11 4.00278 97.08524 27287 ft 506 kts 283°
2026-05-08 10:11 4.01053 97.05090 27570 ft 507 kts 283°
2026-05-08 10:11 4.01828 97.01643 27810 ft 508 kts 283°
2026-05-08 10:12 4.02609 96.98186 28013 ft 510 kts 283°
2026-05-08 10:12 4.03384 96.94714 28210 ft 512 kts 283°
2026-05-08 10:12 4.04150 96.91222 28392 ft 513 kts 282°
2026-05-08 10:12 4.04909 96.87729 28635 ft 514 kts 283°
2026-05-08 10:13 4.05695 96.84238 28899 ft 514 kts 283°
2026-05-08 10:13 4.06494 96.80747 29135 ft 514 kts 283°
2026-05-08 10:13 4.07450 96.77327 29298 ft 508 kts 287°
2026-05-08 10:13 4.08320 96.73884 29348 ft 512 kts 282°
2026-05-08 10:14 4.08968 96.70374 29524 ft 513 kts 280°
2026-05-08 10:14 4.09613 96.66865 29837 ft 511 kts 281°
2026-05-08 10:14 4.10330 96.63382 30194 ft 509 kts 282°
2026-05-08 10:14 4.11092 96.59931 30507 ft 507 kts 283°
2026-05-08 10:15 4.11875 96.56493 30754 ft 507 kts 283°
2026-05-08 10:15 4.12667 96.53053 30984 ft 507 kts 283°
2026-05-08 10:15 4.13456 96.49609 31239 ft 506 kts 283°
2026-05-08 10:15 4.14237 96.46176 31512 ft 506 kts 283°
2026-05-08 10:16 4.15013 96.42741 31720 ft 507 kts 283°
2026-05-08 10:16 4.15787 96.39287 31769 ft 509 kts 283°
2026-05-08 10:16 4.17324 96.32394 31792 ft 505 kts 283°
2026-05-08 10:17 4.18920 96.25532 31806 ft 508 kts 284°
2026-05-08 10:17 4.20559 96.18610 31802 ft 512 kts 283°
2026-05-08 10:18 4.22147 96.11651 31801 ft 513 kts 283°
2026-05-08 10:18 4.23703 96.04671 31792 ft 513 kts 283°
2026-05-08 10:19 4.25248 95.97697 31797 ft 512 kts 283°
2026-05-08 10:20 4.27562 95.87277 31793 ft 510 kts 283°
2026-05-08 10:20 4.29105 95.80344 31794 ft 509 kts 283°
2026-05-08 10:21 4.30644 95.73425 31798 ft 508 kts 283°
2026-05-08 10:21 4.32180 95.66517 31794 ft 508 kts 283°
2026-05-08 10:22 4.33716 95.59610 31800 ft 508 kts 283°
2026-05-08 10:22 4.35250 95.52699 31796 ft 509 kts 283°
2026-05-08 10:23 4.36785 95.45773 31797 ft 509 kts 283°
2026-05-08 10:23 4.38320 95.38844 31796 ft 510 kts 283°
2026-05-08 10:24 4.39856 95.31906 31799 ft 510 kts 283°
2026-05-08 10:24 4.41395 95.24964 31801 ft 510 kts 283°
2026-05-08 10:25 4.42675 95.19197 31793 ft 510 kts 283°
2026-05-08 10:25 4.44214 95.12253 31800 ft 510 kts 283°
2026-05-08 10:26 4.45760 95.05266 31794 ft 510 kts 283°
2026-05-08 10:26 4.47296 94.98329 31798 ft 510 kts 283°
2026-05-08 10:27 4.48828 94.91384 31798 ft 510 kts 283°
2026-05-08 10:27 4.50365 94.84436 31794 ft 511 kts 283°
2026-05-08 10:28 4.51890 94.77532 31794 ft 511 kts 283°
2026-05-08 10:28 4.53433 94.70536 31795 ft 511 kts 283°
2026-05-08 10:29 4.54973 94.63555 31805 ft 515 kts 283°
2026-05-08 10:29 4.56518 94.56565 31804 ft 520 kts 283°
2026-05-08 10:30 4.58083 94.49466 31801 ft 523 kts 283°
2026-05-08 10:30 4.59655 94.42331 31796 ft 526 kts 283°
2026-05-08 10:31 4.61243 94.35119 31801 ft 527 kts 283°
2026-05-08 10:31 4.62823 94.27932 31792 ft 528 kts 283°
2026-05-08 10:32 4.64402 94.20758 31796 ft 526 kts 283°
2026-05-08 10:32 4.65976 94.13609 31791 ft 525 kts 283°
2026-05-08 10:33 4.67546 94.06470 31794 ft 524 kts 283°
2026-05-08 10:33 4.69107 93.99350 31797 ft 523 kts 283°
2026-05-08 10:34 4.70660 93.92281 31793 ft 522 kts 283°
2026-05-08 10:34 4.72222 93.85167 31801 ft 522 kts 283°
2026-05-08 10:35 4.73782 93.78057 31802 ft 523 kts 283°
2026-05-08 10:35 4.75345 93.70933 31795 ft 523 kts 283°
2026-05-08 10:36 4.76917 93.63754 31792 ft 524 kts 283°
2026-05-08 10:36 4.78479 93.56619 31798 ft 524 kts 283°
2026-05-08 10:37 4.80042 93.49475 31798 ft 525 kts 283°
2026-05-08 10:37 4.81607 93.42326 31798 ft 525 kts 283°
2026-05-08 10:38 4.83172 93.35171 31798 ft 525 kts 283°
2026-05-08 10:38 4.84737 93.28017 31794 ft 526 kts 282°
2026-05-08 10:39 4.86303 93.20855 31797 ft 526 kts 282°
2026-05-08 10:39 4.87866 93.13690 31790 ft 526 kts 283°
2026-05-08 10:40 4.89430 93.06521 31799 ft 526 kts 282°
2026-05-08 10:40 4.90991 92.99355 31798 ft 526 kts 282°
2026-05-08 10:41 4.92554 92.92183 31799 ft 526 kts 282°
2026-05-08 10:41 4.94116 92.85011 31807 ft 527 kts 282°
2026-05-08 10:42 4.95679 92.77834 31800 ft 526 kts 282°
2026-05-08 10:42 4.97239 92.70672 31799 ft 525 kts 282°
2026-05-08 10:43 4.98796 92.63512 31797 ft 525 kts 282°
2026-05-08 10:43 5.00354 92.56351 31797 ft 526 kts 282°
2026-05-08 10:44 5.01228 92.52331 31796 ft 526 kts 282°
2026-05-08 10:44 5.01836 92.49530 31797 ft 527 kts 282°
2026-05-08 10:45 5.03396 92.42350 31794 ft 527 kts 282°
2026-05-08 10:45 5.04953 92.35165 31792 ft 528 kts 282°
2026-05-08 10:46 5.06514 92.27968 31798 ft 529 kts 282°
2026-05-08 10:46 5.08075 92.20763 31797 ft 529 kts 282°
2026-05-08 10:47 5.09640 92.13557 31798 ft 529 kts 282°
2026-05-08 10:47 5.11199 92.06347 31795 ft 529 kts 282°
2026-05-08 10:48 5.12759 91.99146 31795 ft 529 kts 282°
2026-05-08 10:48 5.14317 91.91926 31798 ft 529 kts 282°
2026-05-08 10:49 5.15878 91.84717 31794 ft 529 kts 282°
2026-05-08 10:49 5.17436 91.77504 31798 ft 530 kts 282°
2026-05-08 10:50 5.18997 91.70279 31799 ft 530 kts 282°
2026-05-08 10:50 5.20558 91.63054 31795 ft 530 kts 282°
2026-05-08 10:51 5.22115 91.55827 31798 ft 530 kts 282°
2026-05-08 10:51 5.23674 91.48601 31799 ft 529 kts 282°
2026-05-08 10:52 5.25229 91.41384 31801 ft 529 kts 282°
2026-05-08 10:52 5.26781 91.34168 31798 ft 529 kts 282°
2026-05-08 10:53 5.28334 91.26948 31797 ft 530 kts 282°
2026-05-08 10:53 5.29888 91.19731 31793 ft 529 kts 282°
2026-05-08 10:54 5.31442 91.12509 31795 ft 530 kts 282°
2026-05-08 10:54 5.32992 91.05288 31792 ft 529 kts 282°
2026-05-08 10:55 5.34538 90.98075 31800 ft 529 kts 282°
2026-05-08 10:55 5.36090 90.90858 31795 ft 529 kts 282°
2026-05-08 10:56 5.37635 90.83646 31795 ft 528 kts 282°
2026-05-08 10:56 5.39176 90.76448 31796 ft 528 kts 282°
2026-05-08 10:57 5.40722 90.69245 31799 ft 528 kts 282°
2026-05-08 10:57 5.43034 90.58439 31797 ft 528 kts 282°
2026-05-08 10:58 5.44575 90.51234 31798 ft 528 kts 282°
2026-05-08 10:58 5.46116 90.44019 31799 ft 528 kts 282°
2026-05-08 10:59 5.47657 90.36807 31799 ft 529 kts 282°
2026-05-08 10:59 5.49199 90.29584 31797 ft 530 kts 282°
2026-05-08 11:00 5.50740 90.22355 31805 ft 530 kts 282°
2026-05-08 11:00 5.52283 90.15122 31791 ft 530 kts 282°
2026-05-08 11:01 5.53823 90.07894 31800 ft 529 kts 282°
2026-05-08 11:01 5.55357 90.00673 31794 ft 529 kts 282°
2026-05-08 11:02 5.57664 89.89839 31794 ft 529 kts 282°
2026-05-08 11:03 5.59196 89.82629 31807 ft 528 kts 282°
2026-05-08 11:03 5.60730 89.75415 31809 ft 528 kts 282°
2026-05-08 11:04 5.62262 89.68197 31811 ft 529 kts 282°
2026-05-08 11:04 5.63792 89.60983 31809 ft 528 kts 282°
2026-05-08 11:05 5.65325 89.53764 31803 ft 529 kts 282°
2026-05-08 11:05 5.66857 89.46534 31805 ft 530 kts 282°
2026-05-08 11:06 5.68388 89.39297 31805 ft 530 kts 281°
2026-05-08 11:06 5.69661 89.33286 31808 ft 530 kts 282°
2026-05-08 11:07 5.71196 89.26041 31797 ft 531 kts 282°
2026-05-08 11:07 5.72726 89.18792 31808 ft 530 kts 282°
2026-05-08 11:08 5.74500 89.10373 31815 ft 530 kts 282°
2026-05-08 11:08 5.75814 89.04301 31817 ft 531 kts 281°
2026-05-08 11:09 5.77336 88.97049 31807 ft 530 kts 281°
2026-05-08 11:09 5.78853 88.89799 31806 ft 531 kts 281°
2026-05-08 11:10 5.80374 88.82556 31807 ft 530 kts 281°
2026-05-08 11:10 5.81899 88.75310 31810 ft 530 kts 281°
2026-05-08 11:11 5.83423 88.68061 31805 ft 530 kts 281°
2026-05-08 11:11 5.84964 88.60821 31813 ft 530 kts 281°
2026-05-08 11:12 5.86482 88.53575 31808 ft 530 kts 281°
2026-05-08 11:12 5.87996 88.46325 31803 ft 530 kts 281°
2026-05-08 11:13 5.89512 88.39079 31809 ft 530 kts 281°
2026-05-08 11:13 5.91031 88.31835 31807 ft 530 kts 281°
2026-05-08 11:14 5.92541 88.24631 31802 ft 531 kts 281°
2026-05-08 11:14 5.94063 88.17377 31807 ft 531 kts 281°
2026-05-08 11:15 5.95582 88.10118 31807 ft 531 kts 281°
2026-05-08 11:15 5.97103 88.02853 31806 ft 531 kts 281°
2026-05-08 11:16 5.98620 87.95592 31806 ft 531 kts 281°
2026-05-08 11:16 6.00135 87.88331 31805 ft 531 kts 281°
2026-05-08 11:17 6.01651 87.81074 31805 ft 531 kts 281°
2026-05-08 11:17 6.03167 87.73814 31804 ft 531 kts 281°
2026-05-08 11:18 6.04682 87.66555 31797 ft 531 kts 281°
2026-05-08 11:18 6.06192 87.59291 31795 ft 531 kts 281°
2026-05-08 11:19 6.07701 87.52030 31800 ft 531 kts 281°
2026-05-08 11:19 6.09212 87.44770 31794 ft 531 kts 281°
2026-05-08 11:20 6.10721 87.37511 31797 ft 530 kts 281°
2026-05-08 11:20 6.12229 87.30264 31792 ft 530 kts 281°
2026-05-08 11:21 6.13734 87.23022 31793 ft 529 kts 281°
2026-05-08 11:21 6.15234 87.15788 31793 ft 529 kts 281°
2026-05-08 11:22 6.16733 87.08552 31795 ft 528 kts 281°
2026-05-08 11:22 6.18230 87.01327 31795 ft 528 kts 281°
2026-05-08 11:23 6.19725 86.94104 31797 ft 528 kts 281°
2026-05-08 11:23 6.21222 86.86868 31799 ft 529 kts 281°
2026-05-08 11:24 6.22718 86.79627 31796 ft 529 kts 281°
2026-05-08 11:24 6.24211 86.72390 31799 ft 529 kts 281°
2026-05-08 11:25 6.25706 86.65151 31799 ft 529 kts 281°
2026-05-08 11:25 6.27199 86.57918 31796 ft 529 kts 281°
2026-05-08 11:26 6.28686 86.50686 31791 ft 528 kts 281°
2026-05-08 11:26 6.30174 86.43463 31799 ft 528 kts 281°
2026-05-08 11:27 6.31674 86.36239 31792 ft 528 kts 281°
2026-05-08 11:27 6.33159 86.29015 31786 ft 528 kts 281°
2026-05-08 11:28 6.34639 86.21784 31790 ft 528 kts 281°
2026-05-08 11:28 6.36120 86.14545 31788 ft 528 kts 281°
2026-05-08 11:29 6.37605 86.07311 31783 ft 528 kts 281°
2026-05-08 11:29 6.39090 86.00075 31794 ft 529 kts 281°
2026-05-08 11:30 6.40573 85.92841 31785 ft 528 kts 281°
2026-05-08 11:30 6.42054 85.85610 31785 ft 528 kts 281°
2026-05-08 11:31 6.43532 85.78382 31795 ft 528 kts 281°
2026-05-08 11:31 6.45010 85.71153 31791 ft 527 kts 281°
2026-05-08 11:32 6.46486 85.63929 31783 ft 528 kts 281°
2026-05-08 11:32 6.47964 85.56697 31790 ft 528 kts 281°
2026-05-08 11:33 6.49440 85.49451 31788 ft 529 kts 281°
2026-05-08 11:33 6.50918 85.42203 31793 ft 529 kts 281°
2026-05-08 11:34 6.52395 85.34951 31784 ft 529 kts 281°
2026-05-08 11:34 6.53875 85.27698 31795 ft 530 kts 281°
2026-05-08 11:35 6.55349 85.20439 31780 ft 530 kts 281°
2026-05-08 11:35 6.56823 85.13176 31785 ft 530 kts 281°
2026-05-08 11:36 6.58297 85.05915 31789 ft 530 kts 281°
2026-05-08 11:36 6.59771 84.98650 31791 ft 530 kts 281°
2026-05-08 11:37 6.61244 84.91389 31784 ft 530 kts 281°
2026-05-08 11:37 6.62715 84.84131 31782 ft 530 kts 281°
2026-05-08 11:38 6.64185 84.76870 31777 ft 530 kts 281°
2026-05-08 11:38 6.65656 84.69599 31774 ft 531 kts 281°
2026-05-08 11:39 6.67129 84.62322 31777 ft 531 kts 281°
2026-05-08 11:39 6.68599 84.55040 31781 ft 532 kts 280°
2026-05-08 11:40 6.70081 84.47752 31772 ft 531 kts 281°
2026-05-08 11:40 6.71557 84.40474 31774 ft 531 kts 280°
2026-05-08 11:41 6.73012 84.33185 31778 ft 531 kts 280°
2026-05-08 11:41 6.74471 84.25901 31783 ft 532 kts 280°
2026-05-08 11:42 6.75959 84.18601 31779 ft 532 kts 281°
2026-05-08 11:42 6.77416 84.11303 31779 ft 532 kts 280°
2026-05-08 11:43 6.78872 84.04007 31777 ft 532 kts 280°
2026-05-08 11:43 6.80334 83.96714 31778 ft 532 kts 281°
2026-05-08 11:44 6.81796 83.89427 31775 ft 531 kts 281°
2026-05-08 11:44 6.83253 83.82141 31779 ft 531 kts 281°
2026-05-08 11:45 6.84713 83.74859 31771 ft 531 kts 281°
2026-05-08 11:45 6.86162 83.67620 31767 ft 531 kts 281°
2026-05-08 11:46 6.87621 83.60327 31769 ft 532 kts 280°
2026-05-08 11:46 6.89076 83.53039 31767 ft 531 kts 280°
2026-05-08 11:47 6.90531 83.45746 31769 ft 531 kts 280°
2026-05-08 11:47 6.91983 83.38458 31767 ft 531 kts 280°
2026-05-08 11:48 6.93435 83.31172 31773 ft 531 kts 280°
2026-05-08 11:48 6.94888 83.23874 31769 ft 532 kts 280°
2026-05-08 11:49 6.96339 83.16569 31768 ft 532 kts 280°
2026-05-08 11:49 6.97792 83.09260 31769 ft 532 kts 280°
2026-05-08 11:50 6.99244 83.01949 31770 ft 533 kts 280°
2026-05-08 11:50 7.00694 82.94640 31766 ft 533 kts 280°
2026-05-08 11:51 7.01898 82.88568 31770 ft 532 kts 280°
2026-05-08 11:51 7.03345 82.81257 31768 ft 532 kts 280°
2026-05-08 11:52 7.04789 82.73954 31770 ft 532 kts 280°
2026-05-08 11:52 7.06236 82.66651 31767 ft 532 kts 281°
2026-05-08 11:53 7.07682 82.59344 31768 ft 532 kts 280°
2026-05-08 11:53 7.09121 82.52044 31768 ft 532 kts 280°
2026-05-08 11:54 7.10560 82.44741 31768 ft 532 kts 280°
2026-05-08 11:54 7.11999 82.37441 31768 ft 532 kts 280°
2026-05-08 11:55 7.13437 82.30137 31769 ft 532 kts 280°
2026-05-08 11:55 7.14873 82.22835 31767 ft 532 kts 280°
2026-05-08 11:56 7.16309 82.15535 31767 ft 531 kts 280°
2026-05-08 11:56 7.17745 82.08238 31769 ft 531 kts 280°
2026-05-08 11:57 7.19174 82.00942 31776 ft 531 kts 280°
2026-05-08 11:57 7.20605 81.93641 31779 ft 531 kts 280°
2026-05-08 11:58 7.22035 81.86339 31777 ft 531 kts 280°
2026-05-08 11:58 7.23464 81.79038 31779 ft 531 kts 280°
2026-05-08 11:59 7.25606 81.68095 31776 ft 531 kts 280°
2026-05-08 11:59 7.27027 81.60804 31779 ft 530 kts 280°
2026-05-08 12:00 7.28448 81.53515 31778 ft 530 kts 280°
2026-05-08 12:00 7.29870 81.46233 31779 ft 530 kts 280°
2026-05-08 12:01 7.31287 81.38949 31776 ft 530 kts 280°
2026-05-08 12:01 7.32705 81.31675 31783 ft 529 kts 280°
2026-05-08 12:02 7.34120 81.24403 31776 ft 529 kts 280°
2026-05-08 12:02 7.35530 81.17130 31775 ft 529 kts 280°
2026-05-08 12:03 7.36940 81.09864 31778 ft 528 kts 280°
2026-05-08 12:03 7.38349 81.02598 31767 ft 529 kts 280°
2026-05-08 12:04 7.39758 80.95326 31767 ft 529 kts 280°
2026-05-08 12:04 7.41169 80.88051 31759 ft 529 kts 280°
2026-05-08 12:05 7.42573 80.80770 31763 ft 529 kts 280°
2026-05-08 12:05 7.43981 80.73488 31756 ft 529 kts 280°
2026-05-08 12:06 7.45386 80.66209 31761 ft 529 kts 280°
2026-05-08 12:06 7.46790 80.58929 31760 ft 529 kts 280°
2026-05-08 12:07 7.48195 80.51643 31756 ft 530 kts 280°
2026-05-08 12:07 7.49597 80.44358 31757 ft 529 kts 280°
2026-05-08 12:08 7.50996 80.37079 31754 ft 529 kts 280°
2026-05-08 12:08 7.52392 80.29808 31748 ft 528 kts 280°
2026-05-08 12:09 7.53789 80.22540 31750 ft 528 kts 280°
2026-05-08 12:09 7.55183 80.15271 31752 ft 528 kts 280°
2026-05-08 12:10 7.56575 80.08013 31748 ft 528 kts 280°
2026-05-08 12:10 7.57956 80.00799 31750 ft 527 kts 280°
2026-05-08 12:11 7.59341 79.93543 31750 ft 527 kts 280°
2026-05-08 12:11 7.60728 79.86287 31749 ft 527 kts 280°
2026-05-08 12:12 7.62113 79.79032 31750 ft 527 kts 280°
2026-05-08 12:12 7.63498 79.71774 31750 ft 528 kts 280°
2026-05-08 12:13 7.64881 79.64510 31749 ft 528 kts 280°
2026-05-08 12:13 7.66264 79.57244 31750 ft 528 kts 280°
2026-05-08 12:14 7.67656 79.49923 31750 ft 528 kts 280°
2026-05-08 12:14 7.69037 79.42663 31745 ft 526 kts 280°
2026-05-08 12:15 7.70407 79.35448 31731 ft 525 kts 280°
2026-05-08 12:15 7.71765 79.28195 31749 ft 527 kts 280°
2026-05-08 12:16 7.73154 79.20924 31757 ft 529 kts 280°
2026-05-08 12:16 7.74540 79.13629 31754 ft 530 kts 280°
2026-05-08 12:17 7.75927 79.06310 31753 ft 532 kts 280°
2026-05-08 12:17 7.77316 78.98926 31749 ft 533 kts 280°
2026-05-08 12:18 7.78692 78.91648 31747 ft 531 kts 280°
2026-05-08 12:18 7.80069 78.84342 31748 ft 529 kts 280°
2026-05-08 12:19 7.81441 78.77062 31749 ft 528 kts 280°
2026-05-08 12:19 7.82812 78.69789 31750 ft 527 kts 280°
2026-05-08 12:20 7.84175 78.62528 31750 ft 527 kts 280°
2026-05-08 12:20 7.85538 78.55259 31754 ft 527 kts 280°
2026-05-08 12:21 7.86903 78.47990 31749 ft 528 kts 280°
2026-05-08 12:21 7.88267 78.40708 31751 ft 529 kts 280°
2026-05-08 12:22 7.89632 78.33423 31751 ft 528 kts 280°
2026-05-08 12:22 7.90994 78.26140 31748 ft 528 kts 280°
2026-05-08 12:23 7.92363 78.18865 31750 ft 528 kts 281°
2026-05-08 12:23 7.94485 78.11785 31741 ft 528 kts 292°
2026-05-08 12:24 7.97518 78.05035 31751 ft 528 kts 294°
2026-05-08 12:24 8.00588 77.98306 31752 ft 528 kts 294°
2026-05-08 12:25 8.03617 77.91556 31748 ft 528 kts 294°
2026-05-08 12:25 8.06622 77.84792 31750 ft 528 kts 294°
2026-05-08 12:26 8.09624 77.78019 31751 ft 529 kts 294°
2026-05-08 12:26 8.12628 77.71244 31748 ft 529 kts 294°
2026-05-08 12:27 8.15633 77.64467 31750 ft 529 kts 294°
2026-05-08 12:27 8.18634 77.57698 31749 ft 529 kts 294°
2026-05-08 12:28 8.21637 77.50930 31751 ft 528 kts 294°
2026-05-08 12:28 8.24635 77.44158 31750 ft 528 kts 294°
2026-05-08 12:29 8.27631 77.37388 31747 ft 528 kts 294°
2026-05-08 12:29 8.30625 77.30623 31752 ft 528 kts 294°
2026-05-08 12:30 8.33612 77.23865 31748 ft 527 kts 294°
2026-05-08 12:30 8.36595 77.17110 31751 ft 526 kts 294°
2026-05-08 12:31 8.39579 77.10356 31748 ft 526 kts 294°
2026-05-08 12:31 8.42561 77.03602 31753 ft 526 kts 294°
2026-05-08 12:32 8.45538 76.96849 31747 ft 527 kts 294°
2026-05-08 12:32 8.48383 76.90024 31748 ft 527 kts 289°
2026-05-08 12:33 8.50724 76.83003 31752 ft 528 kts 288°
2026-05-08 12:33 8.52633 76.77149 31749 ft 529 kts 288°
2026-05-08 12:34 8.54960 76.70102 31751 ft 529 kts 288°
2026-05-08 12:34 8.57307 76.63067 31748 ft 529 kts 288°
2026-05-08 12:35 8.59661 76.56032 31750 ft 528 kts 289°
2026-05-08 12:35 8.62008 76.48999 31760 ft 528 kts 288°
2026-05-08 12:36 8.64350 76.41972 31758 ft 528 kts 289°
2026-05-08 12:36 8.66691 76.34941 31763 ft 527 kts 288°
2026-05-08 12:37 8.69028 76.27920 31769 ft 527 kts 288°
2026-05-08 12:37 8.71367 76.20892 31771 ft 528 kts 288°
2026-05-08 12:38 8.73708 76.13854 31784 ft 528 kts 288°
2026-05-08 12:38 8.76046 76.06817 31784 ft 528 kts 288°
2026-05-08 12:39 8.78384 75.99773 31793 ft 528 kts 288°
2026-05-08 12:39 8.80718 75.92734 31799 ft 528 kts 289°
2026-05-08 12:40 8.83056 75.85685 31797 ft 528 kts 289°
2026-05-08 12:40 8.85390 75.78643 31796 ft 528 kts 288°
2026-05-08 12:41 8.87719 75.71615 31811 ft 527 kts 288°
2026-05-08 12:41 8.90046 75.64578 31804 ft 527 kts 288°
2026-05-08 12:42 8.92371 75.57543 31806 ft 527 kts 288°
2026-05-08 12:42 8.94696 75.50504 31803 ft 527 kts 288°
2026-05-08 12:43 8.97021 75.43455 32003 ft 528 kts 288°
2026-05-08 12:43 8.98183 75.39938 32228 ft 527 kts 288°
2026-05-08 12:43 8.99345 75.36421 32422 ft 526 kts 288°
2026-05-08 12:44 9.00500 75.32918 32643 ft 525 kts 288°
2026-05-08 12:44 9.01658 75.29407 32852 ft 525 kts 288°
2026-05-08 12:44 9.02813 75.25903 33012 ft 525 kts 288°
2026-05-08 12:44 9.03966 75.22399 33189 ft 525 kts 288°
2026-05-08 12:45 9.05120 75.18894 33362 ft 525 kts 288°
2026-05-08 12:45 9.06258 75.15434 33511 ft 525 kts 288°
2026-05-08 12:45 9.07411 75.11933 33685 ft 524 kts 288°
2026-05-08 12:45 9.08562 75.08433 33740 ft 525 kts 288°
2026-05-08 12:46 9.10868 75.01418 33813 ft 526 kts 288°
2026-05-08 12:46 9.13178 74.94387 33817 ft 527 kts 288°
2026-05-08 12:47 9.15488 74.87349 33817 ft 527 kts 288°
2026-05-08 12:47 9.17796 74.80312 33814 ft 527 kts 288°
2026-05-08 12:48 9.20102 74.73283 33813 ft 526 kts 288°
2026-05-08 12:48 9.22404 74.66264 33813 ft 525 kts 288°
2026-05-08 12:49 9.24698 74.59254 33814 ft 524 kts 288°
2026-05-08 12:49 9.26985 74.52260 33813 ft 523 kts 288°
2026-05-08 12:50 9.29272 74.45265 33816 ft 523 kts 288°
2026-05-08 12:50 9.31553 74.38275 33813 ft 523 kts 288°
2026-05-08 12:51 9.34977 74.27792 33815 ft 522 kts 288°
2026-05-08 12:52 9.37254 74.20800 33813 ft 523 kts 288°
2026-05-08 12:52 9.40676 74.10305 33819 ft 523 kts 288°
2026-05-08 12:53 9.42977 74.03305 33809 ft 524 kts 289°
2026-05-08 12:53 9.45308 73.96314 33804 ft 524 kts 289°
2026-05-08 12:54 9.47632 73.89331 33805 ft 523 kts 289°
2026-05-08 12:54 9.49947 73.82352 33805 ft 522 kts 289°
2026-05-08 12:55 9.52256 73.75382 33813 ft 521 kts 289°
2026-05-08 12:55 9.54560 73.68421 33806 ft 521 kts 289°
2026-05-08 12:56 9.56864 73.61460 33803 ft 521 kts 289°
2026-05-08 12:56 9.59163 73.54501 33806 ft 521 kts 289°
2026-05-08 12:57 9.61465 73.47539 33806 ft 521 kts 289°
2026-05-08 12:57 9.63771 73.40561 33808 ft 522 kts 289°
2026-05-08 12:58 9.66072 73.33575 33806 ft 523 kts 289°
2026-05-08 12:58 9.68380 73.26579 33805 ft 524 kts 289°
2026-05-08 12:59 9.70681 73.19586 33803 ft 524 kts 289°
2026-05-08 12:59 9.72990 73.12571 33807 ft 524 kts 289°
2026-05-08 13:00 9.75294 73.05564 33809 ft 524 kts 289°
2026-05-08 13:00 9.77601 72.98544 33781 ft 525 kts 289°
2026-05-08 13:01 9.79904 72.91529 33765 ft 524 kts 289°
2026-05-08 13:01 9.82206 72.84511 33761 ft 524 kts 289°
2026-05-08 13:02 9.84506 72.77499 33775 ft 524 kts 289°
2026-05-08 13:02 9.86804 72.70479 33782 ft 524 kts 289°
2026-05-08 13:03 9.89103 72.63463 33781 ft 525 kts 288°
2026-05-08 13:03 9.91400 72.56435 33781 ft 525 kts 288°
2026-05-08 13:04 9.93696 72.49411 33764 ft 525 kts 288°
2026-05-08 13:04 9.96071 72.42385 33768 ft 525 kts 292°
2026-05-08 13:05 9.99381 72.35802 33760 ft 524 kts 304°
2026-05-08 13:05 10.03469 72.29692 33779 ft 524 kts 305°
2026-05-08 13:06 10.07592 72.23591 33783 ft 524 kts 305°
2026-05-08 13:06 10.11680 72.17463 33781 ft 524 kts 304°
2026-05-08 13:07 10.15724 72.11354 33766 ft 525 kts 304°
2026-05-08 13:07 10.19785 72.05203 33782 ft 524 kts 304°
2026-05-08 13:08 10.23844 71.99058 33780 ft 524 kts 304°
2026-05-08 13:08 10.27899 71.92921 33768 ft 519 kts 304°
2026-05-08 13:09 10.31881 71.86893 33783 ft 515 kts 304°
2026-05-08 13:09 10.35887 71.80828 33784 ft 520 kts 304°
2026-05-08 13:10 10.39917 71.74719 33782 ft 524 kts 304°
2026-05-08 13:10 10.43988 71.68542 33787 ft 526 kts 304°
2026-05-08 13:11 10.48085 71.62317 33779 ft 527 kts 304°
2026-05-08 13:11 10.52167 71.56128 33781 ft 527 kts 304°
2026-05-08 13:12 10.56238 71.49948 33779 ft 525 kts 304°
2026-05-08 13:12 10.60292 71.43783 33781 ft 523 kts 304°
2026-05-08 13:13 10.64298 71.37689 33799 ft 521 kts 304°
2026-05-08 13:13 10.68316 71.31576 33793 ft 519 kts 304°
2026-05-08 13:14 10.72323 71.25472 33798 ft 519 kts 304°
2026-05-08 13:14 10.76323 71.19379 33795 ft 518 kts 304°
2026-05-08 13:15 10.79672 71.14273 33798 ft 518 kts 304°
2026-05-08 13:15 10.83672 71.08173 33799 ft 519 kts 304°
2026-05-08 13:16 10.87676 71.02064 33801 ft 519 kts 304°
2026-05-08 13:16 10.91682 70.95943 33794 ft 520 kts 304°
2026-05-08 13:17 10.95745 70.89839 33808 ft 521 kts 304°
2026-05-08 13:17 10.99754 70.83695 33790 ft 521 kts 303°
2026-05-08 13:18 11.03730 70.77544 33794 ft 520 kts 303°
2026-05-08 13:18 11.07718 70.71417 33796 ft 519 kts 303°
2026-05-08 13:19 11.11712 70.65303 33796 ft 519 kts 303°
2026-05-08 13:19 11.15707 70.59187 33798 ft 518 kts 303°
2026-05-08 13:20 11.19698 70.53076 33794 ft 518 kts 303°
2026-05-08 13:20 11.23681 70.46967 33796 ft 518 kts 303°
2026-05-08 13:21 11.27664 70.40853 33795 ft 518 kts 303°
2026-05-08 13:21 11.31642 70.34740 33798 ft 518 kts 303°
2026-05-08 13:22 11.35622 70.28624 33795 ft 518 kts 303°
2026-05-08 13:22 11.39601 70.22508 33797 ft 518 kts 303°
2026-05-08 13:23 11.43571 70.16398 33797 ft 517 kts 303°
2026-05-08 13:23 11.47546 70.10279 33796 ft 517 kts 303°
2026-05-08 13:24 11.51511 70.04173 33792 ft 517 kts 303°
2026-05-08 13:24 11.55474 69.98060 33796 ft 516 kts 303°
2026-05-08 13:25 11.59433 69.91955 33796 ft 516 kts 303°
2026-05-08 13:25 11.63391 69.85840 33796 ft 516 kts 303°
2026-05-08 13:26 11.67330 69.79712 33795 ft 517 kts 303°
2026-05-08 13:26 11.71266 69.73576 33795 ft 517 kts 303°
2026-05-08 13:27 11.75198 69.67442 33797 ft 517 kts 303°
2026-05-08 13:27 11.79132 69.61302 33789 ft 517 kts 303°
2026-05-08 13:28 11.83066 69.55165 33787 ft 517 kts 303°
2026-05-08 13:28 11.86999 69.49025 33787 ft 516 kts 303°
2026-05-08 13:29 11.90929 69.42883 33786 ft 516 kts 303°
2026-05-08 13:29 11.94851 69.36752 33787 ft 516 kts 303°
2026-05-08 13:30 11.98777 69.30608 33786 ft 516 kts 303°
2026-05-08 13:30 12.02700 69.24466 33770 ft 516 kts 303°
2026-05-08 13:31 12.06616 69.18332 33761 ft 515 kts 303°
2026-05-08 13:31 12.10519 69.12213 33757 ft 514 kts 303°
2026-05-08 13:32 12.14416 69.06100 33757 ft 513 kts 303°
2026-05-08 13:32 12.18307 68.99992 33752 ft 512 kts 303°
2026-05-08 13:33 12.22205 68.93899 33755 ft 512 kts 303°
2026-05-08 13:33 12.26113 68.87812 33751 ft 512 kts 303°
2026-05-08 13:34 12.30022 68.81715 33767 ft 512 kts 303°
2026-05-08 13:34 12.33922 68.75618 33755 ft 512 kts 303°
2026-05-08 13:35 12.37816 68.69521 33759 ft 512 kts 303°
2026-05-08 13:35 12.41715 68.63420 33765 ft 512 kts 303°
2026-05-08 13:36 12.45613 68.57315 33768 ft 512 kts 303°
2026-05-08 13:36 12.49504 68.51217 33779 ft 512 kts 303°
2026-05-08 13:37 12.52761 68.46109 33751 ft 503 kts 303°
2026-05-08 13:37 12.56536 68.40185 33781 ft 499 kts 303°
2026-05-08 13:38 12.60347 68.34201 33780 ft 505 kts 303°
2026-05-08 13:38 12.64202 68.28146 33779 ft 510 kts 303°
2026-05-08 13:39 12.68088 68.22035 33764 ft 514 kts 303°
2026-05-08 13:39 12.71990 68.15890 33763 ft 516 kts 303°
2026-05-08 13:40 12.75908 68.09726 33775 ft 517 kts 303°
2026-05-08 13:40 12.79823 68.03560 33761 ft 516 kts 303°
2026-05-08 13:41 12.83727 67.97415 33775 ft 513 kts 303°
2026-05-08 13:41 12.87636 67.91313 33773 ft 511 kts 303°
2026-05-08 13:42 12.91531 67.85236 33762 ft 509 kts 303°
2026-05-08 13:42 12.95407 67.79170 33789 ft 508 kts 303°
2026-05-08 13:43 12.99273 67.73109 33790 ft 508 kts 303°
2026-05-08 13:43 13.03139 67.67044 33788 ft 508 kts 303°
2026-05-08 13:44 13.07008 67.60970 33788 ft 509 kts 303°
2026-05-08 13:44 13.10880 67.54889 33788 ft 509 kts 303°
2026-05-08 13:45 13.14756 67.48802 33787 ft 510 kts 303°
2026-05-08 13:45 13.18630 67.42706 33787 ft 510 kts 303°
2026-05-08 13:46 13.22506 67.36609 33785 ft 510 kts 303°
2026-05-08 13:46 13.26380 67.30507 33787 ft 510 kts 303°
2026-05-08 13:47 13.30254 67.24404 33786 ft 510 kts 303°
2026-05-08 13:47 13.34125 67.18302 33787 ft 510 kts 303°
2026-05-08 13:48 13.37996 67.12193 33786 ft 510 kts 303°
2026-05-08 13:48 13.41864 67.06080 33787 ft 510 kts 303°
2026-05-08 13:49 13.45755 66.99933 33785 ft 510 kts 303°
2026-05-08 13:49 13.49619 66.93822 33788 ft 510 kts 303°
2026-05-08 13:50 13.53480 66.87713 33787 ft 510 kts 303°
2026-05-08 13:50 13.57338 66.81604 33786 ft 510 kts 303°
2026-05-08 13:51 13.61195 66.75491 33787 ft 509 kts 303°
2026-05-08 13:51 13.65020 66.69426 33784 ft 509 kts 303°
2026-05-08 13:52 13.68894 66.63279 33789 ft 509 kts 303°
2026-05-08 13:52 13.72715 66.57209 33785 ft 509 kts 303°
2026-05-08 13:53 13.76563 66.51094 33787 ft 509 kts 303°
2026-05-08 13:53 13.80410 66.44974 33787 ft 510 kts 303°
2026-05-08 13:54 13.84259 66.38847 33789 ft 510 kts 303°
2026-05-08 13:54 13.88111 66.32716 33787 ft 510 kts 303°
2026-05-08 13:55 13.91962 66.26574 33786 ft 511 kts 303°
2026-05-08 13:56 13.97116 66.18355 33787 ft 511 kts 303°
2026-05-08 13:56 14.00966 66.12205 33786 ft 511 kts 303°
2026-05-08 13:57 14.04815 66.06055 33786 ft 511 kts 303°
2026-05-08 13:57 14.08658 65.99906 33787 ft 510 kts 303°
2026-05-08 13:58 14.12499 65.93763 33786 ft 510 kts 303°
2026-05-08 13:58 14.16339 65.87616 33785 ft 510 kts 303°
2026-05-08 13:59 14.20173 65.81469 33788 ft 510 kts 303°
2026-05-08 13:59 14.24009 65.75322 33787 ft 510 kts 303°
2026-05-08 14:00 14.27840 65.69171 33787 ft 510 kts 303°
2026-05-08 14:00 14.31667 65.63022 33785 ft 509 kts 303°
2026-05-08 14:01 14.35494 65.56870 33787 ft 509 kts 303°
2026-05-08 14:01 14.39318 65.50719 33787 ft 510 kts 303°
2026-05-08 14:02 14.43143 65.44563 33787 ft 510 kts 303°
2026-05-08 14:02 14.46963 65.38405 33787 ft 510 kts 303°
2026-05-08 14:03 14.50786 65.32242 33795 ft 510 kts 303°
2026-05-08 14:03 14.54602 65.26082 33806 ft 509 kts 303°
2026-05-08 14:04 14.58414 65.19926 33813 ft 509 kts 303°
2026-05-08 14:04 14.62244 65.13784 33816 ft 509 kts 303°
2026-05-08 14:05 14.66101 65.07642 33815 ft 510 kts 303°
2026-05-08 14:05 14.69962 65.01496 33815 ft 510 kts 303°
2026-05-08 14:06 14.73815 64.95340 33816 ft 510 kts 303°
2026-05-08 14:06 14.77664 64.89180 33813 ft 510 kts 303°
2026-05-08 14:07 14.81510 64.83021 33814 ft 510 kts 303°
2026-05-08 14:07 14.85351 64.76867 33815 ft 510 kts 303°
2026-05-08 14:08 14.89189 64.70715 33814 ft 509 kts 303°
2026-05-08 14:08 14.93021 64.64569 33814 ft 508 kts 303°
2026-05-08 14:09 14.96845 64.58423 33815 ft 508 kts 303°
2026-05-08 14:09 15.00672 64.52274 33815 ft 508 kts 303°
2026-05-08 14:10 15.04500 64.46122 33814 ft 509 kts 303°
2026-05-08 14:10 15.08324 64.39965 33815 ft 509 kts 303°
2026-05-08 14:11 15.12150 64.33799 33814 ft 509 kts 303°
2026-05-08 14:11 15.15976 64.27631 33815 ft 509 kts 303°
2026-05-08 14:12 15.19800 64.21461 33814 ft 509 kts 303°
2026-05-08 14:12 15.23622 64.15287 33819 ft 509 kts 302°
2026-05-08 14:13 15.27440 64.09115 33825 ft 509 kts 303°
2026-05-08 14:13 15.31255 64.02943 33824 ft 508 kts 302°
2026-05-08 14:14 15.35067 63.96776 33825 ft 508 kts 302°
2026-05-08 14:14 15.38873 63.90609 33823 ft 508 kts 302°
2026-05-08 14:15 15.42674 63.84447 33823 ft 507 kts 302°
2026-05-08 14:15 15.46473 63.78282 33824 ft 507 kts 302°
2026-05-08 14:16 15.50269 63.72118 33824 ft 507 kts 302°
2026-05-08 14:16 15.54037 63.65988 33824 ft 507 kts 302°
2026-05-08 14:17 15.57829 63.59823 33824 ft 507 kts 302°
2026-05-08 14:17 15.61620 63.53652 33821 ft 507 kts 302°
2026-05-08 14:18 15.65406 63.47485 33819 ft 507 kts 302°
2026-05-08 14:18 15.69215 63.41272 33814 ft 507 kts 302°
2026-05-08 14:19 15.72998 63.35097 33813 ft 507 kts 302°
2026-05-08 14:19 15.76778 63.28919 33816 ft 507 kts 302°
2026-05-08 14:20 15.80559 63.22741 33814 ft 507 kts 302°
2026-05-08 14:20 15.84336 63.16562 33814 ft 507 kts 302°
2026-05-08 14:21 15.88116 63.10375 33818 ft 507 kts 302°
2026-05-08 14:21 15.91893 63.04187 33815 ft 507 kts 302°
2026-05-08 14:22 15.95668 62.97994 33816 ft 507 kts 302°
2026-05-08 14:22 15.99443 62.91798 33815 ft 507 kts 302°
2026-05-08 14:23 16.03211 62.85606 33823 ft 507 kts 302°
2026-05-08 14:23 16.06975 62.79414 33822 ft 506 kts 302°
2026-05-08 14:24 16.10734 62.73224 33825 ft 506 kts 302°
2026-05-08 14:24 16.14496 62.67028 33823 ft 507 kts 302°
2026-05-08 14:25 16.18261 62.60822 33825 ft 508 kts 302°
2026-05-08 14:25 16.22026 62.54611 33827 ft 508 kts 302°
2026-05-08 14:26 16.25794 62.48388 33823 ft 508 kts 302°
2026-05-08 14:26 16.29558 62.42164 33824 ft 508 kts 302°
2026-05-08 14:27 16.33323 62.35936 33806 ft 509 kts 302°
2026-05-08 14:27 16.37090 62.29699 33801 ft 508 kts 302°
2026-05-08 14:28 16.40881 62.23416 33794 ft 508 kts 302°
2026-05-08 14:28 16.44604 62.17240 33802 ft 507 kts 302°
2026-05-08 14:29 16.48380 62.10971 33807 ft 506 kts 302°
2026-05-08 14:29 16.52123 62.04750 33806 ft 507 kts 302°
2026-05-08 14:30 16.55865 61.98529 33804 ft 507 kts 302°
2026-05-08 14:30 16.59605 61.92302 33807 ft 507 kts 302°
2026-05-08 14:31 16.63319 61.86111 33806 ft 508 kts 302°
2026-05-08 14:31 16.67064 61.79866 33806 ft 508 kts 302°
2026-05-08 14:32 16.72681 61.70492 33806 ft 508 kts 302°
2026-05-08 14:32 16.76424 61.64237 33805 ft 509 kts 302°
2026-05-08 14:33 16.80171 61.57967 33807 ft 509 kts 302°
2026-05-08 14:33 16.83915 61.51700 33806 ft 509 kts 302°
2026-05-08 14:34 16.87659 61.45426 33805 ft 509 kts 302°
2026-05-08 14:34 16.90790 61.40172 33805 ft 509 kts 301°
2026-05-08 14:35 16.94524 61.33901 33805 ft 508 kts 301°
2026-05-08 14:35 16.98863 61.26611 33805 ft 508 kts 301°
2026-05-08 14:36 17.01988 61.21356 33805 ft 508 kts 301°
2026-05-08 14:36 17.05717 61.15077 33807 ft 509 kts 301°
2026-05-08 14:37 17.09446 61.08792 33805 ft 509 kts 301°
2026-05-08 14:37 17.13171 61.02510 33813 ft 508 kts 301°
2026-05-08 14:38 17.16895 60.96221 33818 ft 508 kts 301°
2026-05-08 14:38 17.20616 60.89936 33826 ft 509 kts 301°
2026-05-08 14:39 17.24338 60.83641 33822 ft 509 kts 301°
2026-05-08 14:39 17.28056 60.77345 33826 ft 509 kts 301°
2026-05-08 14:40 17.31774 60.71048 33824 ft 508 kts 301°
2026-05-08 14:40 17.35489 60.64748 33821 ft 508 kts 301°
2026-05-08 14:41 17.39200 60.58447 33825 ft 509 kts 301°
2026-05-08 14:41 17.42910 60.52140 33824 ft 509 kts 301°
2026-05-08 14:42 17.46620 60.45830 33824 ft 509 kts 301°
2026-05-08 14:42 17.50328 60.39520 33824 ft 509 kts 301°
2026-05-08 14:43 17.54035 60.33204 33824 ft 509 kts 301°
2026-05-08 14:43 17.57739 60.26884 33823 ft 509 kts 301°
2026-05-08 14:44 17.61445 60.20556 33824 ft 509 kts 301°
2026-05-08 14:44 17.65148 60.14229 33824 ft 509 kts 301°
2026-05-08 14:45 17.68846 60.07901 33823 ft 509 kts 301°
2026-05-08 14:45 17.72491 60.01547 33820 ft 508 kts 297°
2026-05-08 14:46 17.75252 59.94746 33825 ft 507 kts 288°
2026-05-08 14:46 17.77457 59.87727 33823 ft 507 kts 287°
2026-05-08 14:47 17.79670 59.80709 33825 ft 507 kts 288°
2026-05-08 14:47 17.81914 59.73688 33824 ft 508 kts 288°
2026-05-08 14:48 17.84176 59.66659 33824 ft 508 kts 288°
2026-05-08 14:48 17.86437 59.59631 33825 ft 508 kts 288°
2026-05-08 14:49 17.88693 59.52598 33823 ft 508 kts 288°
2026-05-08 14:49 17.90946 59.45565 33822 ft 508 kts 288°
2026-05-08 14:50 17.93195 59.38533 33825 ft 508 kts 288°
2026-05-08 14:50 17.95436 59.31504 33823 ft 508 kts 288°
2026-05-08 14:51 17.97677 59.24472 33824 ft 508 kts 288°
2026-05-08 14:51 17.99919 59.17436 33824 ft 508 kts 288°
2026-05-08 14:52 18.03275 59.06873 33824 ft 508 kts 288°
2026-05-08 14:53 18.05509 58.99828 33823 ft 508 kts 288°
2026-05-08 14:53 18.07742 58.92785 33825 ft 508 kts 288°
2026-05-08 14:54 18.09969 58.85746 33823 ft 508 kts 288°
2026-05-08 14:54 18.12193 58.78706 33824 ft 508 kts 288°
2026-05-08 14:55 18.14416 58.71666 33836 ft 508 kts 288°
2026-05-08 14:55 18.16638 58.64608 33833 ft 508 kts 288°
2026-05-08 14:56 18.18858 58.57551 33836 ft 508 kts 288°
2026-05-08 14:56 18.21077 58.50492 33834 ft 508 kts 288°
2026-05-08 14:57 18.23293 58.43432 33829 ft 509 kts 288°
2026-05-08 14:57 18.25509 58.36361 33835 ft 509 kts 288°
2026-05-08 14:58 18.27720 58.29292 33833 ft 509 kts 288°
2026-05-08 14:58 18.29926 58.22226 33830 ft 509 kts 288°
2026-05-08 14:59 18.32135 58.15145 33823 ft 509 kts 288°
2026-05-08 14:59 18.35441 58.04525 33823 ft 509 kts 288°
2026-05-08 15:00 18.37644 57.97441 33823 ft 509 kts 287°
2026-05-08 15:00 18.39834 57.90354 33824 ft 509 kts 287°
2026-05-08 15:01 18.42015 57.83265 33824 ft 509 kts 287°
2026-05-08 15:01 18.44191 57.76179 33825 ft 509 kts 287°
2026-05-08 15:02 18.46367 57.69089 33822 ft 509 kts 287°
2026-05-08 15:02 18.48539 57.62002 33825 ft 508 kts 287°
2026-05-08 15:03 18.50709 57.54919 33823 ft 508 kts 287°
2026-05-08 15:03 18.52875 57.47831 33824 ft 508 kts 287°
2026-05-08 15:04 18.55037 57.40745 33835 ft 508 kts 287°
2026-05-08 15:04 18.57195 57.33662 33832 ft 507 kts 287°
2026-05-08 15:05 18.59347 57.26589 33835 ft 507 kts 287°
2026-05-08 15:05 18.61497 57.19514 33834 ft 507 kts 287°
2026-05-08 15:06 18.63642 57.12443 33834 ft 506 kts 287°
2026-05-08 15:06 18.65782 57.05375 33829 ft 506 kts 287°
2026-05-08 15:07 18.67924 56.98299 33830 ft 506 kts 287°
2026-05-08 15:07 18.70063 56.91218 33834 ft 507 kts 287°
2026-05-08 15:08 18.71836 56.85341 33836 ft 507 kts 287°
2026-05-08 15:08 18.74333 56.77051 33835 ft 507 kts 287°
2026-05-08 15:09 18.76463 56.69966 33833 ft 507 kts 287°
2026-05-08 15:09 18.78591 56.62873 33836 ft 507 kts 287°
2026-05-08 15:10 18.80715 56.55788 33834 ft 506 kts 287°
2026-05-08 15:10 18.82837 56.48701 33830 ft 506 kts 287°
2026-05-08 15:11 18.84956 56.41613 33836 ft 506 kts 287°
2026-05-08 15:11 18.87071 56.34528 33829 ft 506 kts 287°
2026-05-08 15:12 18.89181 56.27445 33834 ft 506 kts 287°
2026-05-08 15:12 18.91288 56.20362 33834 ft 505 kts 286°
2026-05-08 15:13 18.93388 56.13289 33832 ft 505 kts 286°
2026-05-08 15:13 18.95486 56.06215 33835 ft 505 kts 286°
2026-05-08 15:14 18.97580 55.99140 33831 ft 504 kts 286°
2026-05-08 15:14 18.99307 55.93258 33837 ft 504 kts 286°
2026-05-08 15:15 19.01375 55.86185 33827 ft 503 kts 286°
2026-05-08 15:15 19.03438 55.79126 33835 ft 503 kts 286°
2026-05-08 15:16 19.05496 55.72069 33839 ft 503 kts 286°
2026-05-08 15:16 19.07559 55.65013 33843 ft 502 kts 286°
2026-05-08 15:17 19.09623 55.57965 33842 ft 502 kts 286°
2026-05-08 15:17 19.11677 55.50922 33835 ft 502 kts 286°
2026-05-08 15:18 19.13729 55.43874 33836 ft 501 kts 286°
2026-05-08 15:18 19.15777 55.36832 33839 ft 501 kts 286°
2026-05-08 15:19 19.17819 55.29791 33848 ft 500 kts 286°
2026-05-08 15:19 19.19859 55.22756 33841 ft 500 kts 286°
2026-05-08 15:20 19.21895 55.15723 33843 ft 500 kts 286°
2026-05-08 15:20 19.23925 55.08693 33842 ft 499 kts 286°
2026-05-08 15:21 19.25954 55.01663 33842 ft 499 kts 286°
2026-05-08 15:21 19.27981 54.94631 33843 ft 499 kts 285°
2026-05-08 15:22 19.29999 54.87609 33842 ft 499 kts 285°
2026-05-08 15:22 19.32016 54.80578 33840 ft 499 kts 285°
2026-05-08 15:23 19.34030 54.73557 33843 ft 498 kts 285°
2026-05-08 15:23 19.36041 54.66535 33841 ft 498 kts 285°
2026-05-08 15:24 19.38044 54.59519 33842 ft 498 kts 285°
2026-05-08 15:24 19.40043 54.52506 33843 ft 498 kts 285°
2026-05-08 15:25 19.42042 54.45495 33842 ft 497 kts 285°
2026-05-08 15:25 19.44036 54.38486 33842 ft 496 kts 285°
2026-05-08 15:26 19.46021 54.31486 33843 ft 496 kts 285°
2026-05-08 15:26 19.48004 54.24491 33843 ft 496 kts 285°
2026-05-08 15:27 19.49984 54.17496 33842 ft 495 kts 285°
2026-05-08 15:27 19.51962 54.10500 33846 ft 496 kts 285°
2026-05-08 15:28 19.53936 54.03505 33839 ft 495 kts 285°
2026-05-08 15:28 19.55902 53.96510 33847 ft 495 kts 285°
2026-05-08 15:29 19.57839 53.89507 33842 ft 495 kts 285°
2026-05-08 15:29 19.59771 53.82504 33845 ft 495 kts 285°
2026-05-08 15:30 19.61236 53.75355 33844 ft 493 kts 276°
2026-05-08 15:30 19.62123 53.68202 33844 ft 492 kts 276°
2026-05-08 15:31 19.63004 53.60994 33845 ft 493 kts 276°
2026-05-08 15:31 19.63911 53.53785 33843 ft 493 kts 276°
2026-05-08 15:32 19.64833 53.46574 33844 ft 493 kts 276°
2026-05-08 15:32 19.65757 53.39363 33842 ft 494 kts 276°
2026-05-08 15:33 19.66683 53.32091 33841 ft 493 kts 276°
2026-05-08 15:33 19.67598 53.24880 33841 ft 493 kts 276°
2026-05-08 15:34 19.68509 53.17665 33839 ft 493 kts 276°
2026-05-08 15:34 19.69419 53.10451 33844 ft 493 kts 276°
2026-05-08 15:35 19.70324 53.03242 33840 ft 493 kts 276°
2026-05-08 15:35 19.71224 52.96035 33842 ft 493 kts 276°
2026-05-08 15:36 19.71977 52.89993 33844 ft 493 kts 276°
2026-05-08 15:36 19.73018 52.81615 33844 ft 493 kts 276°
2026-05-08 15:37 19.73913 52.74402 33844 ft 493 kts 276°
2026-05-08 15:37 19.74805 52.67180 33841 ft 493 kts 276°
2026-05-08 15:38 19.75690 52.59965 33842 ft 493 kts 276°
2026-05-08 15:38 19.76574 52.52756 33843 ft 493 kts 276°
2026-05-08 15:39 19.77457 52.45549 33844 ft 492 kts 276°
2026-05-08 15:39 19.78333 52.38347 33840 ft 491 kts 275°
2026-05-08 15:40 19.79206 52.31156 33841 ft 491 kts 275°
2026-05-08 15:40 19.80073 52.23970 33843 ft 491 kts 275°
2026-05-08 15:41 19.80941 52.16784 33845 ft 491 kts 275°
2026-05-08 15:41 19.81804 52.09602 33841 ft 490 kts 275°
2026-05-08 15:42 19.82670 52.02364 33842 ft 491 kts 275°
2026-05-08 15:42 19.83528 51.95181 33842 ft 490 kts 275°
2026-05-08 15:43 19.84379 51.87997 33842 ft 490 kts 275°
2026-05-08 15:43 19.85231 51.80810 33844 ft 491 kts 275°
2026-05-08 15:44 19.86081 51.73617 33842 ft 491 kts 275°
2026-05-08 15:44 19.86929 51.66416 33842 ft 492 kts 275°
2026-05-08 15:45 19.87774 51.59206 33842 ft 492 kts 275°
2026-05-08 15:45 19.88617 51.51993 33836 ft 493 kts 275°
2026-05-08 15:46 19.89457 51.44769 33843 ft 493 kts 275°
2026-05-08 15:46 19.90295 51.37551 33843 ft 492 kts 275°
2026-05-08 15:47 19.91130 51.30337 33841 ft 492 kts 275°
2026-05-08 15:47 19.91960 51.23129 33852 ft 491 kts 275°
2026-05-08 15:48 19.93198 51.12330 33861 ft 490 kts 275°
2026-05-08 15:49 19.94018 51.05137 33862 ft 490 kts 275°
2026-05-08 15:49 19.94836 50.97945 33863 ft 490 kts 275°
2026-05-08 15:50 19.95651 50.90753 33860 ft 490 kts 275°
2026-05-08 15:50 19.96462 50.83555 33867 ft 490 kts 274°
2026-05-08 15:51 19.97272 50.76360 33870 ft 490 kts 274°
2026-05-08 15:51 19.98077 50.69163 33872 ft 490 kts 274°
2026-05-08 15:52 19.98746 50.63187 33870 ft 490 kts 274°
2026-05-08 15:52 19.99547 50.56007 33871 ft 489 kts 274°
2026-05-08 15:53 20.00343 50.48828 33870 ft 489 kts 274°
2026-05-08 15:53 20.01134 50.41656 33869 ft 488 kts 274°
2026-05-08 15:54 20.01922 50.34497 33870 ft 487 kts 274°
2026-05-08 15:54 20.02705 50.27346 33871 ft 487 kts 274°
2026-05-08 15:55 20.03487 50.20192 33871 ft 487 kts 274°
2026-05-08 15:55 20.04657 50.09420 33872 ft 487 kts 274°
2026-05-08 15:56 20.05432 50.02266 33869 ft 487 kts 274°
2026-05-08 15:56 20.06204 49.95113 33873 ft 487 kts 274°
2026-05-08 15:57 20.06971 49.87954 33871 ft 487 kts 274°
2026-05-08 15:57 20.07736 49.80793 33872 ft 487 kts 274°
2026-05-08 15:58 20.08497 49.73636 33880 ft 487 kts 274°
2026-05-08 15:58 20.09260 49.66465 33880 ft 487 kts 274°
2026-05-08 15:59 20.10022 49.59295 33869 ft 488 kts 274°
2026-05-08 15:59 20.10777 49.52123 33863 ft 488 kts 274°
2026-05-08 16:00 20.11526 49.44950 33861 ft 488 kts 274°
2026-05-08 16:00 20.12275 49.37771 33869 ft 488 kts 274°
2026-05-08 16:01 20.13017 49.30645 33869 ft 488 kts 273°
2026-05-08 16:01 20.13762 49.23467 33871 ft 488 kts 273°
2026-05-08 16:02 20.14502 49.16282 33870 ft 488 kts 273°
2026-05-08 16:02 20.15241 49.09098 33868 ft 488 kts 273°
2026-05-08 16:03 20.15978 49.01905 33871 ft 489 kts 273°
2026-05-08 16:03 20.16710 48.94711 33870 ft 489 kts 273°
2026-05-08 16:04 20.17443 48.87511 33870 ft 490 kts 273°
2026-05-08 16:04 20.18173 48.80301 33869 ft 490 kts 273°
2026-05-08 16:05 20.18899 48.73087 33876 ft 490 kts 273°
2026-05-08 16:05 20.19622 48.65872 33869 ft 490 kts 273°
2026-05-08 16:06 20.20341 48.58656 33871 ft 491 kts 273°
2026-05-08 16:06 20.21064 48.51431 33872 ft 491 kts 273°
2026-05-08 16:07 20.21778 48.44198 33871 ft 491 kts 273°
2026-05-08 16:07 20.22493 48.36960 33871 ft 492 kts 273°
2026-05-08 16:08 20.23202 48.29714 33868 ft 492 kts 273°
2026-05-08 16:08 20.23907 48.22474 33871 ft 492 kts 273°
2026-05-08 16:09 20.24609 48.15221 33870 ft 492 kts 273°
2026-05-08 16:09 20.25309 48.07969 33869 ft 492 kts 273°
2026-05-08 16:10 20.26002 48.00723 33871 ft 492 kts 273°
2026-05-08 16:10 20.26697 47.93482 33872 ft 492 kts 273°
2026-05-08 16:11 20.27391 47.86236 33870 ft 492 kts 273°
2026-05-08 16:11 20.28077 47.78992 33871 ft 491 kts 273°
2026-05-08 16:12 20.28759 47.71754 33871 ft 491 kts 273°
2026-05-08 16:12 20.29439 47.64517 33876 ft 490 kts 273°
2026-05-08 16:13 20.30115 47.57293 33879 ft 490 kts 272°
2026-05-08 16:13 20.30789 47.50081 33885 ft 489 kts 272°
2026-05-08 16:14 20.31454 47.42875 33892 ft 488 kts 272°
2026-05-08 16:14 20.32115 47.35680 33885 ft 487 kts 272°
2026-05-08 16:15 20.32779 47.28503 33887 ft 486 kts 272°
2026-05-08 16:15 20.33437 47.21335 33894 ft 485 kts 272°
2026-05-08 16:16 20.34087 47.14187 33890 ft 484 kts 272°
2026-05-08 16:16 20.34732 47.07060 33893 ft 483 kts 272°
2026-05-08 16:17 20.35267 47.01151 33903 ft 482 kts 272°
2026-05-08 16:17 20.36013 46.92859 33908 ft 480 kts 272°
2026-05-08 16:18 20.36644 46.85782 33905 ft 479 kts 272°
2026-05-08 16:18 20.37277 46.78670 33908 ft 479 kts 272°
2026-05-08 16:19 20.37903 46.71616 33911 ft 478 kts 272°
2026-05-08 16:19 20.38516 46.64620 33910 ft 477 kts 272°
2026-05-08 16:20 20.39132 46.57531 33905 ft 477 kts 272°
2026-05-08 16:20 20.39737 46.50542 33905 ft 477 kts 272°
2026-05-08 16:21 20.40349 46.43459 33897 ft 476 kts 272°
2026-05-08 16:21 20.40948 46.36490 33895 ft 475 kts 272°
2026-05-08 16:22 20.41549 46.29471 33899 ft 475 kts 272°
2026-05-08 16:22 20.42145 46.22455 33898 ft 475 kts 272°
2026-05-08 16:23 20.42739 46.15433 33902 ft 475 kts 272°
2026-05-08 16:23 20.43330 46.08409 33896 ft 476 kts 272°
2026-05-08 16:24 20.43921 46.01384 33896 ft 476 kts 272°
2026-05-08 16:24 20.44508 45.94366 33899 ft 475 kts 272°
2026-05-08 16:25 20.45094 45.87308 33884 ft 474 kts 272°
2026-05-08 16:25 20.45672 45.80311 33886 ft 473 kts 272°
2026-05-08 16:26 20.46247 45.73324 33887 ft 473 kts 272°
2026-05-08 16:26 20.46814 45.66393 33885 ft 472 kts 272°
2026-05-08 16:27 20.47382 45.59424 33890 ft 472 kts 272°
2026-05-08 16:27 20.47947 45.52450 33886 ft 472 kts 272°
2026-05-08 16:28 20.48360 45.47332 33888 ft 472 kts 272°
2026-05-08 16:28 20.48688 45.43257 33887 ft 472 kts 272°
2026-05-08 16:29 20.49222 45.36577 33891 ft 471 kts 272°
2026-05-08 16:29 20.49349 45.34986 33892 ft 471 kts 272°
2026-05-08 16:30 20.49909 45.27969 33885 ft 471 kts 271°
2026-05-08 16:30 20.50136 45.21013 33881 ft 468 kts 264°
2026-05-08 16:31 20.50006 45.19015 33889 ft 466 kts 262°
2026-05-08 16:31 20.49626 45.15783 33888 ft 464 kts 257°
2026-05-08 16:32 20.49555 45.15370 33886 ft 464 kts 257°
2026-05-08 16:32 20.48219 45.08649 33897 ft 463 kts 256°
2026-05-08 16:33 20.46858 45.01937 33885 ft 463 kts 256°
2026-05-08 16:33 20.45518 44.95222 33885 ft 463 kts 256°
2026-05-08 16:34 20.44189 44.88521 33894 ft 462 kts 256°
2026-05-08 16:34 20.42864 44.81824 33893 ft 461 kts 256°
2026-05-08 16:35 20.41536 44.75136 33891 ft 461 kts 256°
2026-05-08 16:35 20.40206 44.68457 33885 ft 461 kts 256°
2026-05-08 16:36 20.38873 44.61777 33887 ft 460 kts 256°
2026-05-08 16:36 20.37543 44.55112 33897 ft 459 kts 256°
2026-05-08 16:37 20.36210 44.48458 33897 ft 459 kts 256°
2026-05-08 16:37 20.34875 44.41812 33900 ft 459 kts 256°
2026-05-08 16:38 20.33538 44.35170 33909 ft 459 kts 256°
2026-05-08 16:38 20.32198 44.28529 33918 ft 458 kts 256°
2026-05-08 16:39 20.30859 44.21896 33925 ft 457 kts 256°
2026-05-08 16:39 20.29518 44.15270 33937 ft 458 kts 256°
2026-05-08 16:40 20.28175 44.08644 33944 ft 457 kts 256°
2026-05-08 16:40 20.26830 44.02023 33949 ft 457 kts 256°
2026-05-08 16:41 20.25482 43.95402 33956 ft 458 kts 256°
2026-05-08 16:42 20.23455 43.85468 33961 ft 458 kts 256°
2026-05-08 16:42 20.22099 43.78844 33963 ft 458 kts 256°
2026-05-08 16:43 20.20741 43.72219 33968 ft 458 kts 256°
2026-05-08 16:43 20.19380 43.65597 33972 ft 458 kts 256°
2026-05-08 16:44 20.18018 43.58979 33972 ft 458 kts 256°
2026-05-08 16:44 20.16653 43.52369 33980 ft 457 kts 256°
2026-05-08 16:45 20.15289 43.45767 33984 ft 457 kts 256°
2026-05-08 16:45 20.13922 43.39164 33981 ft 457 kts 255°
2026-05-08 16:46 20.12553 43.32563 33983 ft 456 kts 255°
2026-05-08 16:46 20.11182 43.25975 33979 ft 456 kts 255°
2026-05-08 16:47 20.09809 43.19383 33983 ft 456 kts 255°
2026-05-08 16:47 20.08437 43.12801 33980 ft 456 kts 255°
2026-05-08 16:48 20.07062 43.06224 33983 ft 455 kts 255°
2026-05-08 16:48 20.05685 42.99655 33981 ft 455 kts 255°
2026-05-08 16:49 20.04314 42.93121 33977 ft 449 kts 255°
2026-05-08 16:49 20.02960 42.86702 33966 ft 445 kts 255°
2026-05-08 16:50 20.01577 42.80219 33985 ft 453 kts 255°
2026-05-08 16:50 20.00179 42.73649 33974 ft 455 kts 255°
2026-05-08 16:51 19.98828 42.67077 33967 ft 456 kts 258°
2026-05-08 16:51 19.98385 42.60334 33970 ft 459 kts 266°
2026-05-08 16:52 19.98849 42.53546 33967 ft 462 kts 273°
2026-05-08 16:52 19.99740 42.46785 33971 ft 462 kts 274°
2026-05-08 16:53 20.01083 42.36618 33972 ft 462 kts 273°
2026-05-08 16:53 20.01946 42.29850 33982 ft 462 kts 273°
2026-05-08 16:54 20.02796 42.23077 33993 ft 462 kts 273°
2026-05-08 16:54 20.03642 42.16317 34006 ft 461 kts 273°
2026-05-08 16:55 20.04485 42.09555 34016 ft 460 kts 273°
2026-05-08 16:55 20.05323 42.02857 34052 ft 460 kts 273°
2026-05-08 16:56 20.06169 41.96061 34067 ft 461 kts 273°
2026-05-08 16:56 20.07001 41.89342 34082 ft 462 kts 273°
2026-05-08 16:57 20.07842 41.82525 34090 ft 462 kts 273°
2026-05-08 16:57 20.08678 41.75745 34112 ft 462 kts 273°
2026-05-08 16:58 20.09503 41.69007 34118 ft 463 kts 273°
2026-05-08 16:58 20.10337 41.62178 34120 ft 463 kts 272°
2026-05-08 16:59 20.11162 41.55426 34117 ft 463 kts 273°
2026-05-08 16:59 20.11987 41.48632 34125 ft 463 kts 272°
2026-05-08 17:00 20.12808 41.41833 34121 ft 463 kts 272°
2026-05-08 17:00 20.13629 41.35029 34123 ft 464 kts 272°
2026-05-08 17:01 20.14451 41.28203 34130 ft 465 kts 272°
2026-05-08 17:01 20.15272 41.21361 34122 ft 467 kts 272°
2026-05-08 17:02 20.16090 41.14503 34113 ft 468 kts 272°
2026-05-08 17:02 20.16911 41.07634 34110 ft 468 kts 272°
2026-05-08 17:03 20.17727 41.00755 34109 ft 469 kts 272°
2026-05-08 17:03 20.18539 40.93868 34118 ft 469 kts 272°
2026-05-08 17:04 20.19355 40.86974 34107 ft 470 kts 272°
2026-05-08 17:04 20.20167 40.80060 34107 ft 472 kts 272°
2026-05-08 17:05 20.20999 40.73118 34093 ft 474 kts 274°
2026-05-08 17:05 20.22732 40.66269 34102 ft 484 kts 284°
2026-05-08 17:06 20.25540 40.59685 34093 ft 492 kts 292°
2026-05-08 17:06 20.28822 40.53273 34108 ft 494 kts 292°
2026-05-08 17:07 20.32104 40.46827 33392 ft 501 kts 292°
2026-05-08 17:07 20.33742 40.43563 32586 ft 490 kts 292°
2026-05-08 17:07 20.35318 40.40423 31583 ft 472 kts 292°
2026-05-08 17:08 20.36827 40.37405 30871 ft 450 kts 293°
2026-05-08 17:08 20.38274 40.34498 30253 ft 442 kts 293°
2026-05-08 17:08 20.39712 40.31598 29660 ft 444 kts 293°
2026-05-08 17:08 20.41174 40.28657 29032 ft 454 kts 294°
2026-05-08 17:09 20.42667 40.25657 28398 ft 461 kts 294°
2026-05-08 17:09 20.44167 40.22646 27730 ft 459 kts 295°
2026-05-08 17:09 20.45663 40.19646 27093 ft 456 kts 295°
2026-05-08 17:09 20.47145 40.16673 26456 ft 452 kts 295°
2026-05-08 17:10 20.48614 40.13722 25826 ft 449 kts 295°
2026-05-08 17:10 20.50069 40.10797 25198 ft 445 kts 296°
2026-05-08 17:10 20.51515 40.07891 24574 ft 441 kts 296°
2026-05-08 17:10 20.52932 40.05039 23950 ft 427 kts 296°
2026-05-08 17:11 20.54297 40.02292 23366 ft 411 kts 296°
2026-05-08 17:11 20.55631 39.99603 22820 ft 409 kts 296°
2026-05-08 17:11 20.56959 39.96924 22263 ft 407 kts 296°
2026-05-08 17:11 20.58281 39.94255 21714 ft 406 kts 296°
2026-05-08 17:12 20.59594 39.91602 21156 ft 404 kts 296°
2026-05-08 17:12 20.60905 39.88954 20613 ft 402 kts 296°
2026-05-08 17:12 20.62209 39.86323 20067 ft 401 kts 296°
2026-05-08 17:12 20.63506 39.83701 19526 ft 399 kts 296°
2026-05-08 17:13 20.64803 39.81082 18987 ft 398 kts 296°
2026-05-08 17:13 20.66094 39.78473 18450 ft 397 kts 296°
2026-05-08 17:13 20.67376 39.75876 17913 ft 395 kts 296°
2026-05-08 17:13 20.68242 39.74122 17545 ft 394 kts 296°
2026-05-08 17:14 20.69927 39.70703 16842 ft 391 kts 297°
2026-05-08 17:14 20.70776 39.68975 16482 ft 388 kts 296°
2026-05-08 17:14 20.72030 39.66434 15952 ft 386 kts 296°
2026-05-08 17:14 20.73283 39.63901 15426 ft 385 kts 296°
2026-05-08 17:15 20.74527 39.61380 14901 ft 383 kts 296°
2026-05-08 17:15 20.75766 39.58863 14381 ft 382 kts 296°
2026-05-08 17:15 20.76998 39.56359 13898 ft 380 kts 296°
2026-05-08 17:15 20.78229 39.53862 13421 ft 378 kts 297°
2026-05-08 17:16 20.79661 39.51540 12995 ft 374 kts 307°
2026-05-08 17:16 20.81365 39.49439 12499 ft 373 kts 311°
2026-05-08 17:16 20.83126 39.47408 11984 ft 373 kts 311°
2026-05-08 17:16 20.84870 39.45360 11493 ft 372 kts 310°
2026-05-08 17:17 20.86568 39.43292 11156 ft 366 kts 310°
2026-05-08 17:17 20.88205 39.41263 10984 ft 356 kts 309°
2026-05-08 17:17 20.89774 39.39313 10797 ft 332 kts 309°
2026-05-08 17:17 20.91219 39.37523 10636 ft 304 kts 309°
2026-05-08 17:18 20.92547 39.35882 10519 ft 282 kts 309°
2026-05-08 17:18 20.93809 39.34321 10425 ft 276 kts 309°
2026-05-08 17:18 20.95142 39.32812 10296 ft 284 kts 322°
2026-05-08 17:18 20.96910 39.31801 10228 ft 293 kts 336°
2026-05-08 17:19 20.98800 39.30935 10074 ft 297 kts 335°
2026-05-08 17:19 21.00693 39.30032 9695 ft 299 kts 335°
2026-05-08 17:19 21.02586 39.29112 9384 ft 297 kts 335°
2026-05-08 17:19 21.04430 39.28208 9237 ft 287 kts 335°
2026-05-08 17:20 21.06220 39.27324 9027 ft 281 kts 335°
2026-05-08 17:20 21.07986 39.26471 8706 ft 276 kts 341°
2026-05-08 17:20 21.09834 39.26231 8445 ft 264 kts
2026-05-08 17:20 21.11622 39.26571 8159 ft 259 kts 11°
2026-05-08 17:21 21.13377 39.26922 7890 ft 254 kts 11°
2026-05-08 17:21 21.15100 39.27263 7631 ft 250 kts 11°
2026-05-08 17:21 21.16803 39.27598 7386 ft 247 kts 11°
2026-05-08 17:21 21.18485 39.27928 7136 ft 245 kts 11°
2026-05-08 17:22 21.20156 39.28257 6921 ft 244 kts 11°
2026-05-08 17:22 21.21816 39.28580 6669 ft 242 kts 11°
2026-05-08 17:22 21.23465 39.28901 6440 ft 240 kts 11°
2026-05-08 17:22 21.25105 39.29219 6217 ft 239 kts 10°
2026-05-08 17:23 21.26738 39.29523 5985 ft 236 kts
2026-05-08 17:23 21.28342 39.29258 5738 ft 237 kts 338°
2026-05-08 17:23 21.29909 39.28607 5560 ft 246 kts 339°
2026-05-08 17:23 21.31516 39.27973 5297 ft 246 kts 340°
2026-05-08 17:24 21.33114 39.27345 5039 ft 242 kts 340°
2026-05-08 17:24 21.34678 39.26728 4812 ft 237 kts 339°
2026-05-08 17:24 21.36209 39.26123 4575 ft 232 kts 339°
2026-05-08 17:24 21.37715 39.25526 4346 ft 229 kts 340°
2026-05-08 17:25 21.39213 39.24935 4140 ft 230 kts 340°
2026-05-08 17:25 21.40725 39.24340 3921 ft 233 kts 340°
2026-05-08 17:25 21.42159 39.23775 3713 ft 233 kts 340°
2026-05-08 17:25 21.43670 39.23180 3471 ft 232 kts 340°
2026-05-08 17:26 21.45180 39.22587 3248 ft 232 kts 340°
2026-05-08 17:26 21.46681 39.21992 3095 ft 226 kts 339°
2026-05-08 17:26 21.48124 39.21422 3020 ft 215 kts 339°
2026-05-08 17:26 21.49485 39.20887 2942 ft 202 kts 340°
2026-05-08 17:27 21.50761 39.20391 2848 ft 191 kts 340°
2026-05-08 17:27 21.51988 39.19917 2783 ft 185 kts 340°
2026-05-08 17:27 21.53185 39.19448 2748 ft 181 kts 340°
2026-05-08 17:27 21.54367 39.18978 2634 ft 184 kts 340°
2026-05-08 17:28 21.55551 39.18510 2421 ft 178 kts 340°
2026-05-08 17:28 21.56675 39.18066 2155 ft 166 kts 340°
2026-05-08 17:28 21.57724 39.17652 1963 ft 156 kts 340°
2026-05-08 17:28 21.58726 39.17255 1785 ft 155 kts 340°
2026-05-08 17:29 21.59743 39.16852 1566 ft 156 kts 340°
2026-05-08 17:29 21.60756 39.16451 1359 ft 153 kts 340°
2026-05-08 17:29 21.61742 39.16061 1147 ft 150 kts 340°
2026-05-08 17:29 21.62720 39.15674 949 ft 151 kts 340°
2026-05-08 17:30 21.63704 39.15285 756 ft 152 kts 340°
2026-05-08 17:30 21.64699 39.14891 552 ft 152 kts 340°
2026-05-08 17:30 21.65689 39.14494 337 ft 151 kts 340°
2026-05-08 17:30 21.66675 39.14112 156 ft 151 kts 340°
2026-05-08 17:31 21.67670 39.13718 41 ft 148 kts 340°
2026-05-08 17:31 21.68512 39.13385 30 ft 104 kts 339°
2026-05-08 17:31 21.69017 39.13185 32 ft 50 kts 342°
2026-05-08 17:31 21.69135 39.13174 31 ft 11 kts 18°
2026-05-08 17:32 21.69207 39.13198 30 ft 11 kts 14°
2026-05-08 17:32 21.69279 39.13223 29 ft 11 kts 37°
2026-05-08 17:32 21.69267 39.13293 29 ft 11 kts 143°
2026-05-08 17:32 21.69195 39.13329 29 ft 11 kts 159°
2026-05-08 17:33 21.69122 39.13359 30 ft 11 kts 159°
2026-05-08 17:33 21.69054 39.13386 29 ft 11 kts 159°
2026-05-08 17:33 21.68980 39.13416 29 ft 11 kts 159°
2026-05-08 17:33 21.68905 39.13446 29 ft 11 kts 159°
2026-05-08 17:34 21.68832 39.13475 28 ft 11 kts 159°
2026-05-08 17:34 21.68758 39.13505 27 ft 11 kts 159°
2026-05-08 17:34 21.68682 39.13534 27 ft 12 kts 160°
2026-05-08 17:34 21.68601 39.13565 26 ft 13 kts 160°
2026-05-08 17:35 21.68520 39.13597 26 ft 13 kts 159°
2026-05-08 17:35 21.68437 39.13631 27 ft 13 kts 159°
2026-05-08 17:35 21.68362 39.13661 27 ft 6 kts 156°
2026-05-08 17:35 21.68334 39.13699 28 ft 7 kts 109°
2026-05-08 17:36 21.68338 39.13750 26 ft 7 kts 75°
2026-05-08 17:36 21.68357 39.13811 31 ft 16 kts 70°
2026-05-08 17:36 21.68408 39.13955 27 ft 21 kts 69°
2026-05-08 17:36 21.68459 39.14105 30 ft 21 kts 70°
2026-05-08 17:37 21.68510 39.14254 28 ft 21 kts 69°
2026-05-08 17:37 21.68561 39.14403 29 ft 21 kts 69°
2026-05-08 17:37 21.68613 39.14552 31 ft 21 kts 69°
2026-05-08 17:37 21.68665 39.14699 31 ft 21 kts 69°
2026-05-08 17:38 21.68714 39.14847 26 ft 21 kts 71°
2026-05-08 17:38 21.68763 39.14987 31 ft 16 kts 69°
2026-05-08 17:38 21.68804 39.15085 38 ft 14 kts 46°
2026-05-08 17:38 21.68895 39.15085 38 ft 14 kts 340°
2026-05-08 17:39 21.68985 39.15050 37 ft 14 kts 340°
2026-05-08 17:39 21.69094 39.15007 36 ft 22 kts 340°
2026-05-08 17:39 21.69238 39.14950 37 ft 22 kts 340°
2026-05-08 17:39 21.69383 39.14893 35 ft 22 kts 340°
2026-05-08 17:40 21.69525 39.14837 35 ft 22 kts 339°
2026-05-08 17:40 21.69669 39.14779 33 ft 22 kts 339°
2026-05-08 17:40 21.69812 39.14722 31 ft 22 kts 341°
2026-05-08 17:40 21.69956 39.14666 29 ft 22 kts 340°
2026-05-08 17:41 21.70100 39.14609 26 ft 22 kts 340°
2026-05-08 17:41 21.70221 39.14562 29 ft 18 kts 340°
2026-05-08 17:41 21.70338 39.14516 27 ft 18 kts 340°
2026-05-08 17:41 21.70436 39.14472 23 ft 13 kts 323°
2026-05-08 17:42 21.70443 39.14382 29 ft 13 kts 249°
2026-05-08 17:42 21.70384 39.14318 31 ft 13 kts 186°
2026-05-08 17:42 21.70296 39.14343 26 ft 13 kts 159°
2026-05-08 17:42 21.70211 39.14377 30 ft 13 kts 159°
2026-05-08 17:43 21.70124 39.14411 27 ft 13 kts 160°
2026-05-08 17:43 21.70046 39.14435 27 ft 10 kts 170°
2026-05-08 17:43 21.69978 39.14452 31 ft 10 kts 164°
2026-05-08 17:43 21.69942 39.14465 26 ft 0 kts 161°
2026-05-08 17:44 21.69930 39.14459 27 ft 3 kts 214°
2026-05-08 17:44 21.69925 39.14443 26 ft 2 kts 251°
2026-05-08 17:44 21.69920 39.14427 28 ft 2 kts 251°
2026-05-08 17:44 21.69915 39.14412 27 ft 2 kts 250°
2026-05-08 17:45 21.69912 39.14403 28 ft 1 kts 250°
2026-05-08 17:45 21.69910 39.14398 29 ft 0 kts 250°